Other Public Products
Issued by NWS Charleston, SC

Current Version | Previous Version | Text Only | Print | Product List | Glossary Off
Versions: 1 2 3 4 5 6 7 8 9 10 11 12 13 14 15 16 17 18 19 20 21 22 23 24 25 26 27 28 29 30 31 32 33 34 35 36 37 38 39 40 41 42 43 44 45 46 47 48 49 50
000 FPUS82 KCHS 162012 OPUCHS TEST...KCHS/KSAV Gateway Observations...TEST National Weather Service Charleston SC 300 PM EST SAT DEC 16 2017 NOTE: "fair" indicates few or no clouds below 12,000 feet with no significant weather and/or obstructions to visibility. SCZ050-WAZ558-NCZ071-TXZ119-213-PAZ071-DCZ001-FLZ074-172-MI076- NYZ176-178-MAZ016-IL014-TNZ027-NJZ106-GAZ044-MD014-162100- ...Gateway Observations for Charleston International... CITY SKY/WX TMP DP RH WIND PRES REMARKS Chas Airport MOSUNNY 54 35 48 S10 30.25F Seattle CLOUDY 45 40 82 VRB5 30.32F Charlotte PTSUNNY 49 23 36 S8 30.21F Dallas DFW CLOUDY 60 30 32 S13 30.02F Dallas Love CLOUDY 59 30 33 S16G25 30.05F Philladelphia PTSUNNY 42 24 49 SW15 30.05S Wash National MOSUNNY 47 24 40 S13 30.09S Baltimore MOSUNNY 45 23 42 SW10 30.06S Miami CLOUDY 79 61 53 E12 30.15F Detroit PTSUNNY 32 24 72 NE9 30.00R WCI 24 Newark CLOUDY 37 24 59 SW15 30.00R WCI 28 Laguardia PTSUNNY 38 23 55 W16G29 29.99R WCI 29 J F K PTSUNNY 37 26 64 W14 30.01R WCI 28 Boston Logan MOCLDY 32 13 45 W15G24 29.92R WCI 22 Ft. Lauderdale CLOUDY 76 62 62 NE10 30.15F Chicago O`Hare MOSUNNY 46 26 45 SW6 29.88S Chicago Midway MOSUNNY 47 27 45 SW7 29.89S Houston Bush CLOUDY 59 35 40 E15 30.09F Houston Hobby CLOUDY 59 36 42 E13G21 30.08F Nashville PTSUNNY 52 28 39 S10 30.18F Atlanta CLOUDY 52 28 39 VRB3 30.24S $$ GAZ044-118-TXZ119-213-NCZ071-DCZ001-MDZ014-506-PAZ021-071-NJZ106- NYZ176-178-MAZ106-OHZ011-021-055-MIZ076-KYZ091-ILZ014-INZ047- MNZ060-ONZ431-162100- ...Gateway Observations for Savannah International... CITY SKY/WX TMP DP RH WIND PRES REMARKS Savannah Arpt MOSUNNY 56 27 32 CALM 30.26F Atlanta CLOUDY 52 28 39 VRB3 30.24S Charlotte PTSUNNY 49 23 36 S8 30.21F Dallas DFW CLOUDY 60 30 32 S13 30.02F Houston Bush CLOUDY 59 35 40 E15 30.09F Wash National MOSUNNY 47 24 40 S13 30.09S Wash Dulles MOSUNNY 45 22 40 SW14G22 30.07S Baltimore MOSUNNY 45 23 42 SW10 30.06S Philadelphia PTSUNNY 42 24 49 SW15 30.05S Newark CLOUDY 37 24 59 SW15 30.00R WCI 28 Laguardia PTSUNNY 38 23 55 W16G29 29.99R WCI 29 J F K PTSUNNY 37 26 64 W14 30.01R WCI 28 Boston MOCLDY 32 13 45 W15G24 29.92R WCI 22 Pittsburg MOSUNNY 42 26 53 SW12 30.00S Akron MOSUNNY 40 26 57 SW8 29.99R WCI 34 Cleveland CLOUDY 40 28 62 SW12 30.01R WCI 33 Cincinnati SUNNY 49 28 44 SW15 30.04F Columbus SUNNY 47 28 47 SW21 30.01F Detroit PTSUNNY 32 24 72 NE9 30.00R WCI 24 Chicago O`Hare MOSUNNY 46 26 45 SW6 29.88S Minneapolis CLOUDY 29 25 85 NE3 29.92R Indianapolis SUNNY 50 29 44 SW14 29.98F Toronto Canada MOSUNNY 21 9 58 N12 30.05R WCI 9 $$

USA.gov is the U.S. government's official web portal to all federal, state and local government web resources and services.